Погода в Ирпене

Украина / Киевская область     50°31′11″N   30°14′40″E
темп.,
°C
ветер,
м/с
пор.,
м/с
влажн.,
%
обл.,
%
осадки,
мм/ч
давл.,
гПа
погр.,
м
17 июня, чт
чт1700:00+17ссв38890 0.1 1017210
03:00+16ссв49945 0.1 1017218
06:00+16ссв399257 0.0 1017263
09:00+21св5970100 0.0 1018635
12:00+24св7955100 0.0 10191348
15:00+25св78491 0.0 10191490
18:00+25св686010 0.0 10191401
21:00+21св511790 0.1 1020602
18 июня, пт
пт1800:00+18св512870 0.0 1021507
03:00+16св410880 0.0 1021339
06:00+16св410899 0.0 1021340
09:00+21всв587420 0.0 1021670
12:00+24всв686374 0.0 10211265
15:00+25всв686282 0.1 10211409
18:00+23в59766 1.4 10211098
21:00+20в49880 1.4 1022443
19 июня, сб
сб1900:00+19в39910 0.0 1022300
03:00+17всв37941 0.0 1022194
06:00+17всв27935 0.0 1022197
09:00+22всв47705 0.0 1022702
12:00+25в68557 0.0 10211477
15:00+26в5857100 0.0 10201565
18:00+24в5966100 0.6 10191112
21:00+22в4976100 0.6 1019617
20 июня, вс
вс2000:00+20в4984100 0.2 1020436
03:00+19в3990100 0.3 1019331
06:00+18в3891100 0.0 1019267
09:00+22в576669 0.0 1019587
12:00+26в574785 0.0 10181037
15:00+27в684684 0.0 10171169
18:00+25в585788 0.0 1016950
21:00+22в497493 0.0 1016495
21 июня, пн
пн2100:00+19всв378878 0.0 1016240
03:00+17всв379143 0.0 1015200
06:00+17всв38896 0.0 1015264
09:00+22в586873 0.2 1014705
12:00+26в46575 0.5 10131062
15:00+28вюв565198 0.5 10121538
18:00+25вюв476543 0.0 1012677
21:00+23вюв367599 0.1 1013299